Date String (YYYY-MM-DD hh:mm:ss) UTC,Instrument flags,Ambient pressure (hPa),Sample flow (lpm),Bypass flow (lpm),Sample temperature (°C),Ambient temperature (°C),ASC tube jacket temperature (°C),LED temperature (°C),Box temperature (°C),Sample RH (%),Span deviation,Mass concentration (μg/m³),Mass concentration (μg/m³),Mass concentration (μg/m³)
DateTimeUTC,F1_M11,P_M11,Q1_M11,Q2_M11,T1_M11,T2_M11,T3_M11,T4_M11,T5_M11,U1_M11,ZSPAN_M11,X0_M11,X2_M11,X1_M11
2021-08-27 13:00:00,,0827.1,5.02,0.00,30.0,29.0,00.0,39.1,31.7,20.0,0000.0,0005.35,0003.13,0002.78
2021-08-27 13:01:00,,0827.2,5.01,0.00,30.0,29.1,00.0,39.1,31.8,19.8,0000.0,0005.35,0003.14,0002.79
2021-08-27 13:02:00,,0827.1,5.00,0.00,30.0,29.1,00.0,39.1,31.8,19.6,0000.0,0005.40,0003.16,0002.81
2021-08-27 13:03:00,,0827.1,4.99,0.00,30.0,29.1,00.0,39.1,31.9,19.6,0000.0,0005.42,0003.18,0002.83
2021-08-27 13:04:00,,0827.2,5.00,0.00,30.1,29.2,00.0,39.1,31.9,19.6,0000.0,0005.48,0003.19,0002.82
2021-08-27 13:05:00,,0826.9,5.01,0.00,30.1,29.2,00.0,39.1,31.9,19.6,0000.0,0005.49,0003.20,0002.82
2021-08-27 13:06:00,,0827.0,4.98,0.00,30.1,29.2,00.0,39.1,31.9,19.2,0000.0,0005.47,0003.20,0002.84
2021-08-27 13:07:00,,0826.9,5.01,0.00,30.1,29.3,00.0,39.2,31.9,19.4,0000.0,0005.40,0003.20,0002.84
2021-08-27 13:08:00,,0826.9,5.01,0.00,30.1,29.3,00.0,39.2,32.0,19.4,0000.0,0005.42,0003.21,0002.86
2021-08-27 13:09:00,,0826.9,4.99,0.00,30.2,29.3,00.0,39.2,32.0,19.3,0000.0,0005.45,0003.22,0002.88
2021-08-27 13:10:00,,0827.2,5.00,0.00,30.2,29.3,00.0,39.2,32.0,19.2,0001.2,0005.33,0003.19,0002.87
2021-08-27 13:11:00,,0827.1,5.00,0.00,30.2,29.3,00.0,39.2,32.0,19.2,0000.5,0004.64,0003.19,0002.88
2021-08-27 13:12:00,,0827.0,5.01,0.00,30.2,29.3,00.0,39.2,32.0,19.3,0001.0,0004.43,0003.19,0002.89
2021-08-27 13:13:00,,0826.9,4.99,0.00,30.2,29.4,00.0,39.2,32.0,19.1,0000.3,0004.59,0003.21,0002.91
2021-08-27 13:14:00,,0826.9,5.00,0.00,30.3,29.4,00.0,39.3,32.0,19.0,0000.1,0004.63,0003.20,0002.91
2021-08-27 13:15:00,,0826.9,5.00,0.00,30.3,29.4,00.0,39.3,32.0,19.0,0000.0,0004.65,0003.20,0002.92
2021-08-27 13:16:00,,0826.9,5.00,0.00,30.3,29.4,00.0,39.3,32.1,19.0,0000.0,0004.71,0003.21,0002.92
2021-08-27 13:17:00,,0827.1,5.00,0.00,30.3,29.3,00.0,39.3,32.0,19.0,0000.3,0004.73,0003.21,0002.92
2021-08-27 13:18:00,,0827.1,5.00,0.00,30.3,27.7,00.0,39.3,31.6,19.0,0001.0,0004.63,0003.19,0002.92
2021-08-27 13:19:00,,0826.8,4.99,0.00,30.1,26.2,00.0,39.3,31.2,19.3,0000.4,0004.61,0003.19,0002.92
2021-08-27 13:20:00,,0826.8,5.00,0.00,30.0,26.2,00.0,39.2,31.2,19.9,0000.4,0004.64,0003.20,0002.93
2021-08-27 13:21:00,,0826.9,4.99,0.00,29.9,26.7,00.0,39.2,31.2,20.1,0000.0,0004.58,0003.18,0002.91
2021-08-27 13:22:00,,0826.8,5.02,0.00,29.8,27.1,00.0,39.1,31.3,19.7,-000.0,0004.56,0003.19,0002.91
2021-08-27 13:23:00,,0826.8,4.99,0.00,29.8,27.5,00.0,39.1,31.3,19.5,-000.0,0004.53,0003.18,0002.91
2021-08-27 13:24:00,,0826.8,5.01,0.00,29.8,27.8,00.0,39.1,31.4,19.3,0000.0,0005.05,0003.17,0002.89
2021-08-27 13:25:00,,0826.8,4.99,0.00,29.8,28.0,00.0,39.0,31.4,19.4,0000.0,0004.95,0003.18,0002.90
2021-08-27 13:26:00,,0826.8,5.01,0.00,29.8,28.2,00.0,39.0,31.5,19.5,0000.0,0005.02,0003.20,0002.91
2021-08-27 13:27:00,,0826.8,4.99,0.00,29.8,28.4,00.0,39.0,31.5,19.7,-000.1,0005.03,0003.20,0002.92
2021-08-27 13:28:00,,0826.8,5.01,0.00,29.8,28.5,00.0,39.0,31.6,19.2,-000.1,0004.96,0003.20,0002.92
2021-08-27 13:29:00,,0826.8,4.99,0.00,29.9,28.6,00.0,39.0,31.6,19.6,0000.0,0004.99,0003.21,0002.92
2021-08-27 13:30:00,,0826.8,5.00,0.00,29.9,28.7,00.0,39.0,31.6,19.4,0000.0,0004.97,0003.21,0002.92
2021-08-27 13:31:00,,0826.8,5.00,0.00,29.9,28.8,00.0,39.0,31.7,20.5,0000.0,0005.02,0003.22,0002.93
2021-08-27 13:32:00,,0826.8,4.99,0.00,29.9,28.9,00.0,39.0,31.7,22.2,0000.0,0005.15,0003.25,0002.95
2021-08-27 13:33:00,,0826.9,4.99,0.00,30.0,28.9,00.0,39.0,31.7,22.5,0000.4,0005.31,0003.27,0002.97
2021-08-27 13:34:00,,0826.9,5.00,0.00,30.0,29.0,00.0,39.0,31.7,22.4,0000.6,0005.30,0003.26,0002.96
2021-08-27 13:35:00,,0826.8,5.00,0.00,30.0,29.0,00.0,39.0,31.7,22.4,0001.6,0004.74,0003.27,0002.98
2021-08-27 13:36:00,,0826.8,5.00,0.00,30.0,29.1,00.0,39.1,31.8,21.3,0002.1,0004.60,0003.27,0002.99
2021-08-27 13:37:00,,0826.8,5.00,0.00,30.1,29.1,00.0,39.1,31.9,21.3,0002.2,0004.55,0003.26,0002.97
2021-08-27 13:38:00,,0826.8,5.00,0.00,30.1,29.2,00.0,39.1,31.9,20.6,0000.9,0004.48,0003.25,0002.95
2021-08-27 13:39:00,,0826.7,5.00,0.00,30.1,29.2,00.0,39.1,31.9,19.7,0000.4,0004.60,0003.26,0002.96
2021-08-27 13:40:00,,0826.8,5.00,0.00,30.1,29.2,00.0,39.1,31.9,19.7,0001.8,0004.72,0003.24,0002.96
2021-08-27 13:41:00,,0826.8,5.00,0.00,30.2,29.3,00.0,39.1,32.0,19.6,0001.7,0004.69,0003.23,0002.96
2021-08-27 13:42:00,,0826.8,5.02,0.00,30.2,29.3,00.0,39.2,32.0,20.2,0001.2,0004.60,0003.21,0002.95
2021-08-27 13:43:00,,0826.8,5.00,0.00,30.2,29.4,00.0,39.2,32.0,21.1,0001.2,0004.49,0003.18,0002.95
2021-08-27 13:44:00,,0826.8,5.00,0.00,30.2,29.4,00.0,39.2,32.0,21.2,0000.7,0004.44,0003.18,0002.95
2021-08-27 13:45:00,,0826.8,5.02,0.00,30.3,29.4,00.0,39.2,32.1,21.0,0000.4,0004.50,0003.19,0002.96
2021-08-27 13:46:00,,0826.8,5.00,0.00,30.3,29.4,00.0,39.2,32.1,21.0,0000.0,0004.47,0003.19,0002.95
2021-08-27 13:47:00,,0826.7,4.99,0.00,30.3,29.2,00.0,39.3,32.0,19.8,0000.0,0004.39,0003.17,0002.94
2021-08-27 13:48:00,,0826.8,5.00,0.00,30.2,27.6,00.0,39.3,31.6,20.3,0000.0,0004.31,0003.17,0002.97
2021-08-27 13:49:00,,0826.7,5.00,0.00,30.1,26.5,00.0,39.2,31.3,20.6,0000.0,0004.38,0003.19,0003.01
2021-08-27 13:50:00,,0826.7,5.01,0.00,30.0,26.7,00.0,39.2,31.4,21.6,0000.0,0004.37,0003.20,0003.01
2021-08-27 13:51:00,,0826.7,4.99,0.00,29.9,27.1,00.0,39.2,31.4,22.1,0000.0,0004.36,0003.23,0003.01
2021-08-27 13:52:00,,0826.7,5.00,0.00,29.9,27.5,00.0,39.1,31.4,21.6,0000.0,0005.43,0003.26,0003.03
2021-08-27 13:53:00,,0826.7,5.01,0.00,29.9,27.8,00.0,39.1,31.5,21.5,0000.0,0005.76,0003.27,0003.04
2021-08-27 13:54:00,,0826.7,5.00,0.00,29.9,28.1,00.0,39.1,31.5,21.7,0000.0,0006.42,0003.29,0003.05
2021-08-27 13:55:00,,0826.7,5.00,0.00,29.9,28.3,00.0,39.0,31.6,21.0,0000.0,0006.38,0003.30,0003.05
2021-08-27 13:56:00,,0826.7,5.01,0.00,29.9,28.5,00.0,39.0,31.6,20.3,0000.0,0006.41,0003.31,0003.07
2021-08-27 13:57:00,,0826.6,4.99,0.00,29.9,28.6,00.0,39.0,31.7,21.7,0000.0,0006.46,0003.33,0003.07
2021-08-27 13:58:00,,0826.7,4.99,0.00,30.0,28.7,00.0,39.1,31.7,21.0,0000.0,0006.52,0003.34,0003.07
2021-08-27 13:59:00,,0826.7,5.02,0.00,30.0,28.8,00.0,39.1,31.8,22.5,0000.0,0006.56,0003.34,0003.05
